Regional Weather Roundup
Issued by NWS

Home | Current Version | Previous Version | Text Only | Print | Product List | Glossary Off
Versions: 1 2 3 4 5 6 7 8 9 10 11 12 13 14 15 16 17 18 19 20 21 22 23 24 25 26 27 28 29 30 31 32 33 34 35 36 37 38 39 40 41 42 43 44 45 46 47 48 49 50

265
ASUS44 KMEG 260910
RWRTN
TENNESSEE HOURLY STATE WEATHER ROUNDUP
NATIONAL WEATHER SERVICE MEMPHIS TN
400 AM CDT MON SEP 26 2016

TNZ002-004-019-021-049-052-054-088>092-261000-
WEST TENNESSEE

CITY           SKY/WX    TMP DP  RH WIND       PRES   REMARKS
MEMPHIS INTL   CLOUDY    78  68  71 W3        29.99R
NWS MEMPHIS      N/A     74 N/A N/A MISG        N/A
JACKSON          N/A    N/A N/A N/A MISG      29.98S
DYERSBURG      CLOUDY   N/A N/A N/A MISG        N/A
UNION CITY     PTCLDY    73  72  94 NW9       30.01R
PARIS          MOCLDY    70  64  83 CALM      29.99R
HUNTINGDON       N/A     68  66  94 CALM      29.96F
LEXINGTON      CLEAR     64  64 100 CALM      29.98S
$$

TNZ008-025-027-028-033-062-065-066-261000-
NORTH MIDDLE TENNESSEE

CITY           SKY/WX    TMP DP  RH WIND       PRES   REMARKS
NASHVILLE      CLEAR     67  64  90 S3        29.98F
PORTLAND       CLEAR     64  64 100 CALM      29.98S
CLARKSVILLE    FOG       65  64  97 CALM      29.97S VSB 1/2
SMYRNA         CLEAR     67  64  90 CALM      29.99F
COOKEVILLE     PTCLDY    66  66 100 CALM      30.01S
GALLATIN       CLEAR     66  64  94 CALM      30.00F
CROSSVILLE     PTCLDY    71  62  73 VRB3      30.08S
$$

TNZ061-075-076-078-094-096-097-261000-
SOUTH MIDDLE TENNESSEE

CITY           SKY/WX    TMP DP  RH WIND       PRES   REMARKS
FAYETTEVILLE   MOCLDY    73  63  68 S7        30.01S
TULLAHOMA      CLEAR     68  64  88 CALM      30.03S
WINCHESTER     MOCLDY    72  64  78 E6        30.02F
MCMINNVILLE    MOCLDY    66  66 100 CALM      30.02F
COLUMBIA       CLEAR    N/A N/A N/A CALM      29.97F
SHELBYVILLE    CLEAR     66  66 100 E3        30.01F
$$

TNZ017-018-042-046-047-261000-
NORTHEAST TENNESSEE

CITY           SKY/WX    TMP DP  RH WIND       PRES   REMARKS
TRI CITIES     PTCLDY    64  62  93 CALM      30.07S
ELIZABETHTON   CLEAR     66  64  94 CALM      30.08S
$$

TNZ012-013-036-069-073-074-261000-
CENTRAL EAST TENNESSEE

CITY           SKY/WX    TMP DP  RH WIND       PRES   REMARKS
KNOXVILLE      CLEAR     72  63  73 CALM      30.02F
OAK RIDGE      CLEAR     70  66  87 CALM      30.05S
DOWNTOWN KNOXV CLEAR     66  66 100 CALM      30.03S
GATLINBURG     CLEAR     64  61  88 CALM      30.03F
MORRISTOWN     CLEAR     68  63  83 CALM      30.05R
JACKSBORO      CLEAR     66  64  94 CALM      30.06F
$$

TNZ083-085-099-261000-
SOUTHEAST TENNESSEE

CITY           SKY/WX    TMP DP  RH WIND       PRES   REMARKS
CHATTANOOGA    PTCLDY    72  63  73 CALM      30.04S
$$

SKY/WX REPORTED AS FAIR MEANS FEW OR NO CLOUDS BELOW
12 THOUSAND FEET.





USA.gov is the U.S. government's official web portal to all federal, state and local government web resources and services.